Location: Sternwarte Stuttgart
(48.7670°N, 9.1830°E)
Time: 02:38:15
(UTC+02:00)

ISS - All Passes

Search period start: 29 July 2015 00:00
Search period end: 08 August 2015 00:00
Orbit: 401 x 403 km, 51.6° (Epoch: 28 July)

Date Brightness Start Highest point End Pass type
(mag) Time Alt. Az. Time Alt. Az. Time Alt. Az.
29 Jul - 01:30:50 10° W 01:34:04 62° NNW 01:37:20 10° ENE visible
29 Jul - 03:07:35 10° WNW 03:10:47 51° N 03:13:59 10° E visible
29 Jul - 04:44:03 10° WNW 04:47:18 64° SSW 04:50:32 10° SE visible
29 Jul - 06:21:37 10° WSW 06:23:15 13° SW 06:24:49 10° SSW daylight
29 Jul - 23:02:10 10° SSW 23:04:49 24° SE 23:07:31 10° E night (unlit)
30 Jul - 00:37:44 10° WSW 00:41:00 82° NNW 00:44:17 10° ENE visible
30 Jul - 02:14:27 10° WNW 02:17:39 48° N 02:20:50 10° ENE visible
30 Jul - 03:50:59 10° WNW 03:54:16 87° NNE 03:57:33 10° ESE visible
30 Jul - 05:27:49 10° W 05:30:24 22° SW 05:32:58 10° SSE daylight
30 Jul - 22:10:06 10° S 22:11:55 14° SE 22:13:50 10° ESE visible
30 Jul - 23:44:39 10° WSW 23:47:54 69° SSE 23:51:10 10° ENE visible
31 Jul - 01:21:15 10° W 01:24:26 50° N 01:27:39 10° ENE visible
31 Jul - 02:57:53 10° WNW 03:01:08 65° NNE 03:04:23 10° E visible
31 Jul - 04:34:26 10° W 04:37:27 35° SSW 04:40:27 10° SE visible
31 Jul - 22:51:42 10° SW 22:54:48 43° SSE 22:57:56 10° ENE visible
01 Aug - 00:27:58 10° W 00:31:12 58° NNW 00:34:26 10° ENE visible
01 Aug - 02:04:40 10° WNW 02:07:53 53° N 02:11:06 10° E visible
01 Aug - 03:41:09 10° WNW 03:44:21 56° SSW 03:47:34 10° SE visible
01 Aug - 05:19:07 10° WSW 05:20:15 11° SW 05:21:17 10° SSW visible
01 Aug - 21:58:55 10° SSW 22:01:42 27° SE 22:04:31 10° E visible
01 Aug - 23:34:38 10° WSW 23:37:55 76° NNW 23:41:11 10° ENE visible
02 Aug - 01:11:22 10° WNW 01:14:33 48° N 01:17:45 10° E visible
02 Aug - 02:47:53 10° WNW 02:51:09 86° SSW 02:54:25 10° ESE night (unlit)
02 Aug - 04:24:49 10° W 04:27:14 19° SW 04:29:36 10° S visible
02 Aug - 21:06:29 10° S 21:08:36 16° SE 21:10:46 10° E daylight
02 Aug - 22:41:21 10° WSW 22:44:36 77° SSE 22:47:53 10° ENE visible
03 Aug - 00:17:58 10° W 00:21:10 49° N 00:24:21 10° ENE visible
03 Aug - 01:54:34 10° WNW 01:57:50 69° NNE 02:01:05 10° E visible
03 Aug - 03:31:09 10° W 03:34:05 31° SW 03:37:00 10° SSE night (unlit)
03 Aug - 21:48:08 10° SW 21:51:18 49° SSE 21:54:28 10° ENE visible
03 Aug - 23:24:30 10° W 23:27:43 56° N 23:30:56 10° ENE visible
04 Aug - 01:01:11 10° WNW 01:04:24 55° N 01:07:37 10° E visible
04 Aug - 02:37:39 10° WNW 02:40:49 50° SSW 02:43:59 10° SE night (unlit)
04 Aug - 20:55:06 10° SSW 20:57:59 30° SE 21:00:54 10° E daylight
04 Aug - 22:30:58 10° WSW 22:34:13 71° NNW 22:37:30 10° ENE visible
05 Aug - 00:07:42 10° WNW 00:10:53 49° N 00:14:04 10° E visible
05 Aug - 01:44:10 10° WNW 01:47:27 79° SSW 01:50:42 10° ESE visible
05 Aug - 03:21:14 10° W 03:23:27 17° SW 03:25:37 10° S night (unlit)
05 Aug - 20:02:22 10° S 20:04:40 18° SE 20:07:02 10° E daylight
05 Aug - 21:37:28 10° WSW 21:40:43 84° SSE 21:44:00 10° ENE visible
05 Aug - 23:14:06 10° W 23:17:17 48° N 23:20:29 10° ENE visible
06 Aug - 00:50:39 10° WNW 00:53:55 74° NNE 00:57:11 10° ESE visible
06 Aug - 02:27:17 10° W 02:30:08 28° SW 02:32:57 10° SSE night (unlit)
06 Aug - 19:10:36 10° SSE 19:11:21 11° SE 19:12:14 10° ESE daylight
06 Aug - 20:44:01 10° SW 20:47:12 54° SSE 20:50:25 10° ENE daylight
06 Aug - 22:20:26 10° W 22:23:38 54° N 22:26:52 10° ENE visible
06 Aug - 23:57:05 10° WNW 00:00:19 57° NNE 00:03:32 10° E visible
07 Aug - 01:33:33 10° WNW 01:36:41 45° SSW 01:39:49 10° SE visible
07 Aug - 19:50:44 10° SSW 19:53:41 33° SSE 19:56:41 10° E daylight
07 Aug - 21:26:42 10° W 21:29:58 66° NNW 21:33:13 10° ENE visible
07 Aug - 23:03:24 10° WNW 23:06:36 50° N 23:09:48 10° E visible
